Simultaneous Nadir Overpasses (SNOs) Predictions

Prediction of SNOs between AQUA and GOES-15 Satellite Orbit:

Table of predicted SNOs for the next 14.0 days since TLE Epoch: 10/18/2019
Index Date Time (AQUA) AQUA Lat,Lon GOES-15 Lat,Lon Distance(km) Time Diff (sec)
1 10/20/2019 21:57:56 0.31,-125.68 -0.21,-128.19 285.02 80
2 10/21/2019 10:19:12 0.75,-130.85 0.19,-128.25 295.27 80
3 10/23/2019 10:07:01 0.08,-127.90 0.19,-128.29 45.30 80
4 10/25/2019 09:54:49 -0.52,-124.93 0.19,-128.33 385.63 80
5 10/25/2019 22:16:13 -0.58,-130.13 -0.17,-128.29 209.61 80
6 10/27/2019 22:04:02 0.09,-127.18 -0.17,-128.32 130.61 80
7 10/28/2019 10:25:17 0.98,-132.34 0.15,-128.38 449.68 80
8 10/29/2019 21:51:50 0.71,-124.22 -0.18,-128.35 470.40 80
9 10/30/2019 10:13:05 0.36,-129.38 0.16,-128.41 110.13 80
10 11/01/2019 10:00:53 -0.25,-126.42 0.16,-128.44 228.85 80




NCC Satellite Simultaneous Nadir Overpasses (SNOs) Prediction Service
